SWR8CM EHAM-LSZH

Flight info

Callsign SWR8CM
Flight time 1h 0m
Altitude 35000
Route LOPIK N852 LNO DCT DEMUL DCT SUTAL DCT GTQ DCT BAMEV DCT BLM
Aircraft A20N/M-SDE2E3FGHIRWXY/LB1

Departure

Time 2026-04-30 19:57
Airport Amsterdam Airport Schiphol (EHAM)

Arrival

Time 2026-04-30 20:57
Airport Zürich Airport (LSZH)
Time Latitude Longitude Altitude Speed Heading
2026-04-30 19:26 52.30896 4.77303 -1 ft 0 kts
2026-04-30 19:46 52.30890 4.77302 -2 ft 2 kts
2026-04-30 19:46 52.30873 4.77300 -2 ft 2 kts
2026-04-30 19:46 52.30857 4.77297 -2 ft 2 kts 14°
2026-04-30 19:46 52.30842 4.77284 -2 ft 2 kts 81°
2026-04-30 19:47 52.30842 4.77266 -2 ft 1 kts 92°
2026-04-30 19:47 52.30842 4.77265 -2 ft 0 kts 92°
2026-04-30 19:50 52.30841 4.77274 -2 ft 3 kts 92°
2026-04-30 19:51 52.30840 4.77359 -2 ft 12 kts 92°
2026-04-30 19:51 52.30836 4.77499 -1 ft 12 kts 92°
2026-04-30 19:51 52.30871 4.77606 -1 ft 16 kts 18°
2026-04-30 19:51 52.30999 4.77622 -1 ft 21 kts
2026-04-30 19:52 52.31161 4.77637 -1 ft 22 kts
2026-04-30 19:52 52.31321 4.77652 -1 ft 24 kts
2026-04-30 19:52 52.31471 4.77619 -1 ft 22 kts 326°
2026-04-30 19:52 52.31567 4.77445 -1 ft 18 kts 294°
2026-04-30 19:53 52.31572 4.77208 -2 ft 24 kts 266°
2026-04-30 19:53 52.31563 4.76907 -1 ft 29 kts 268°
2026-04-30 19:53 52.31552 4.76590 -1 ft 27 kts 265°
2026-04-30 19:53 52.31540 4.76285 -1 ft 27 kts 268°
2026-04-30 19:54 52.31530 4.75952 -1 ft 32 kts 266°
2026-04-30 19:54 52.31517 4.75599 -1 ft 32 kts 266°
2026-04-30 19:54 52.31504 4.75234 -2 ft 27 kts 267°
2026-04-30 19:54 52.31493 4.74923 -1 ft 22 kts 266°
2026-04-30 19:55 52.31490 4.74725 -1 ft 11 kts 283°
2026-04-30 19:55 52.31563 4.74663 -1 ft 15 kts 353°
2026-04-30 19:55 52.31649 4.74680 -1 ft 11 kts 28°
2026-04-30 19:55 52.31668 4.74776 -1 ft 0 kts 85°
2026-04-30 19:56 52.31669 4.74809 -2 ft 10 kts 85°
2026-04-30 19:56 52.31684 4.75322 -3 ft 78 kts 87°
2026-04-30 19:56 52.31726 4.76520 -2 ft 130 kts 86°
2026-04-30 19:56 52.31783 4.78163 223 ft 149 kts 87°
2026-04-30 19:57 52.31704 4.79815 818 ft 147 kts 118°
2026-04-30 19:57 52.30906 4.80752 1634 ft 144 kts 155°
2026-04-30 19:57 52.29918 4.81250 2169 ft 153 kts 154°
2026-04-30 19:57 52.28888 4.81916 2683 ft 165 kts 152°
2026-04-30 19:58 52.27805 4.82806 3146 ft 186 kts 149°
2026-04-30 19:58 52.26599 4.83904 3529 ft 208 kts 149°
2026-04-30 19:58 52.25356 4.85179 3918 ft 213 kts 141°
2026-04-30 19:58 52.24181 4.86757 4605 ft 228 kts 140°
2026-04-30 19:59 52.22898 4.88452 5309 ft 244 kts 140°
2026-04-30 19:59 52.21573 4.90173 6297 ft 247 kts 140°
2026-04-30 19:59 52.18828 4.93722 8154 ft 258 kts 140°
2026-04-30 20:00 52.17406 4.95562 9073 ft 263 kts 140°
2026-04-30 20:00 52.15953 4.97444 9987 ft 269 kts 140°
2026-04-30 20:00 52.14484 4.99344 10744 ft 279 kts 140°
2026-04-30 20:00 52.12896 5.01398 11115 ft 302 kts 140°
2026-04-30 20:01 52.09197 5.05393 12311 ft 328 kts 153°
2026-04-30 20:01 52.07069 5.06697 13141 ft 334 kts 162°
2026-04-30 20:01 52.04803 5.07692 13950 ft 340 kts 162°
2026-04-30 20:02 52.00181 5.09741 15441 ft 348 kts 162°
2026-04-30 20:02 51.97832 5.10789 16162 ft 352 kts 162°
2026-04-30 20:03 51.93121 5.12892 17570 ft 360 kts 162°
2026-04-30 20:03 51.90685 5.13977 18266 ft 365 kts 162°
2026-04-30 20:03 51.88220 5.15073 18918 ft 369 kts 162°
2026-04-30 20:03 51.85727 5.16180 19535 ft 373 kts 162°
2026-04-30 20:04 51.83208 5.17297 20138 ft 377 kts 163°
2026-04-30 20:04 51.80691 5.18412 20733 ft 380 kts 163°
2026-04-30 20:04 51.78127 5.19547 21340 ft 384 kts 163°
2026-04-30 20:05 51.72915 5.21850 22504 ft 392 kts 163°
2026-04-30 20:05 51.70274 5.23016 23073 ft 396 kts 163°
2026-04-30 20:05 51.64888 5.25387 24165 ft 403 kts 163°
2026-04-30 20:06 51.62196 5.26571 24659 ft 406 kts 163°
2026-04-30 20:06 51.59458 5.27773 25147 ft 409 kts 163°
2026-04-30 20:06 51.56701 5.28982 25612 ft 412 kts 163°
2026-04-30 20:06 51.53919 5.30200 26082 ft 415 kts 163°
2026-04-30 20:07 51.51117 5.31425 26546 ft 418 kts 163°
2026-04-30 20:07 51.48298 5.32656 26991 ft 421 kts 163°
2026-04-30 20:07 51.42643 5.35121 27852 ft 426 kts 163°
2026-04-30 20:08 51.39774 5.36369 28261 ft 429 kts 163°
2026-04-30 20:08 51.36880 5.37627 28664 ft 431 kts 163°
2026-04-30 20:08 51.33978 5.38886 29054 ft 434 kts 163°
2026-04-30 20:08 51.31045 5.40156 29429 ft 437 kts 163°
2026-04-30 20:09 51.28100 5.41430 29795 ft 439 kts 163°
2026-04-30 20:09 51.26141 5.42244 30023 ft 441 kts 166°
2026-04-30 20:09 51.19095 5.44597 30814 ft 446 kts 166°
2026-04-30 20:10 51.14039 5.46703 31324 ft 449 kts 163°
2026-04-30 20:10 51.11056 5.48013 31698 ft 450 kts 163°
2026-04-30 20:10 51.08043 5.49332 32120 ft 449 kts 163°
2026-04-30 20:11 51.02030 5.51954 32947 ft 447 kts 163°
2026-04-30 20:11 50.99021 5.53262 33354 ft 446 kts 163°
2026-04-30 20:11 50.96020 5.54565 33753 ft 445 kts 163°
2026-04-30 20:12 50.90046 5.57153 34470 ft 444 kts 163°
2026-04-30 20:12 50.87064 5.58443 34788 ft 443 kts 163°
2026-04-30 20:12 50.84091 5.59727 35088 ft 443 kts 163°
2026-04-30 20:13 50.81118 5.61010 35305 ft 443 kts 163°
2026-04-30 20:13 50.75186 5.63563 35292 ft 441 kts 163°
2026-04-30 20:14 50.69288 5.66095 35289 ft 441 kts 163°
2026-04-30 20:14 50.63384 5.68740 35292 ft 441 kts 161°
2026-04-30 20:15 50.57497 5.71507 35296 ft 441 kts 162°
2026-04-30 20:15 50.51588 5.74109 35292 ft 441 kts 163°
2026-04-30 20:16 50.45693 5.76649 35296 ft 441 kts 162°
2026-04-30 20:16 50.39767 5.79211 35290 ft 441 kts 162°
2026-04-30 20:17 50.33841 5.81773 35291 ft 442 kts 162°
2026-04-30 20:17 50.27910 5.84332 35293 ft 442 kts 162°
2026-04-30 20:18 50.22015 5.86869 35290 ft 442 kts 162°
2026-04-30 20:18 50.16077 5.89418 35300 ft 442 kts 162°
2026-04-30 20:19 50.10142 5.91959 35300 ft 442 kts 162°
2026-04-30 20:19 50.04206 5.94494 35293 ft 442 kts 162°
2026-04-30 20:20 49.98319 5.97048 35290 ft 441 kts 160°
2026-04-30 20:20 49.92707 6.00812 35290 ft 438 kts 149°
2026-04-30 20:21 49.87347 6.05363 35293 ft 438 kts 149°
2026-04-30 20:21 49.81973 6.09881 35295 ft 439 kts 149°
2026-04-30 20:22 49.76623 6.14351 35295 ft 439 kts 149°
2026-04-30 20:22 49.71242 6.18833 35295 ft 439 kts 149°
2026-04-30 20:23 49.65852 6.23310 35294 ft 439 kts 149°
2026-04-30 20:23 49.60497 6.27750 35297 ft 439 kts 149°
2026-04-30 20:24 49.55098 6.32213 35293 ft 439 kts 149°
2026-04-30 20:24 49.49703 6.36661 35290 ft 439 kts 149°
2026-04-30 20:25 49.41449 6.42729 35285 ft 440 kts 153°
2026-04-30 20:26 49.33063 6.48425 35278 ft 440 kts 153°
2026-04-30 20:26 49.24663 6.54118 35268 ft 441 kts 153°
2026-04-30 20:27 49.13413 6.61708 35263 ft 442 kts 153°
2026-04-30 20:28 49.02180 6.69255 35266 ft 443 kts 153°
2026-04-30 20:30 48.87855 6.78065 35268 ft 445 kts 156°
2026-04-30 20:31 48.70530 6.88248 35267 ft 446 kts 155°
2026-04-30 20:32 48.56024 6.96762 35257 ft 447 kts 156°
2026-04-30 20:33 48.47340 7.01829 35261 ft 447 kts 156°
2026-04-30 20:34 48.38655 7.06878 35261 ft 448 kts 156°
2026-04-30 20:35 48.29910 7.11941 35261 ft 448 kts 156°
2026-04-30 20:35 48.21191 7.16976 35261 ft 449 kts 156°
2026-04-30 20:36 48.15342 7.20343 35258 ft 449 kts 156°
2026-04-30 20:36 48.09535 7.23675 35010 ft 447 kts 156°
2026-04-30 20:37 48.06620 7.25344 34381 ft 449 kts 155°
2026-04-30 20:37 48.03685 7.27026 33436 ft 454 kts 156°
2026-04-30 20:37 48.00707 7.28731 32410 ft 459 kts 156°
2026-04-30 20:37 47.97709 7.30445 31341 ft 465 kts 156°
2026-04-30 20:38 47.94675 7.32176 30276 ft 469 kts 156°
2026-04-30 20:38 47.91619 7.33915 29247 ft 469 kts 156°
2026-04-30 20:38 47.88586 7.35641 28483 ft 464 kts 156°
2026-04-30 20:39 47.82634 7.39021 27044 ft 454 kts 156°
2026-04-30 20:39 47.79692 7.40683 26329 ft 450 kts 156°
2026-04-30 20:39 47.76773 7.42331 25637 ft 446 kts 156°
2026-04-30 20:40 47.71018 7.45586 24317 ft 438 kts 156°
2026-04-30 20:40 47.68209 7.47185 23639 ft 435 kts 154°
2026-04-30 20:40 47.65591 7.49330 22929 ft 425 kts 141°
2026-04-30 20:41 47.61898 7.55833 21535 ft 408 kts 113°
2026-04-30 20:41 47.60927 7.59752 20864 ft 402 kts 107°
2026-04-30 20:41 47.59730 7.63467 20388 ft 397 kts 120°
2026-04-30 20:41 47.58192 7.66789 20127 ft 384 kts 123°
2026-04-30 20:42 47.56652 7.69896 19895 ft 374 kts 123°
2026-04-30 20:42 47.55131 7.73019 19656 ft 374 kts 122°
2026-04-30 20:42 47.52147 7.79429 18642 ft 379 kts 121°
2026-04-30 20:43 47.50679 7.82656 18066 ft 375 kts 121°
2026-04-30 20:43 47.49233 7.85838 17534 ft 369 kts 121°
2026-04-30 20:43 47.47834 7.88928 17024 ft 364 kts 121°
2026-04-30 20:44 47.45047 7.95080 15994 ft 355 kts 121°
2026-04-30 20:44 47.43675 7.98104 15482 ft 352 kts 121°
2026-04-30 20:44 47.40983 8.04025 14486 ft 346 kts 122°
2026-04-30 20:45 47.38355 8.09785 13487 ft 340 kts 123°
2026-04-30 20:45 47.37035 8.12668 13004 ft 337 kts 122°
2026-04-30 20:45 47.35745 8.15492 12535 ft 333 kts 122°
2026-04-30 20:46 47.31896 8.23904 11103 ft 325 kts 123°
2026-04-30 20:46 47.30632 8.26647 10642 ft 323 kts 123°
2026-04-30 20:47 47.28222 8.31879 10384 ft 297 kts 123°
2026-04-30 20:47 47.27081 8.34359 10212 ft 288 kts 123°
2026-04-30 20:48 47.24817 8.39269 9690 ft 293 kts 123°
2026-04-30 20:48 47.23673 8.41747 9307 ft 292 kts 123°
2026-04-30 20:48 47.22529 8.44220 8922 ft 290 kts 124°
2026-04-30 20:48 47.21414 8.46631 8549 ft 287 kts 124°
2026-04-30 20:49 47.20295 8.49042 8277 ft 280 kts 124°
2026-04-30 20:49 47.19215 8.51365 8164 ft 268 kts 124°
2026-04-30 20:49 47.18227 8.53625 8059 ft 256 kts 114°
2026-04-30 20:50 47.18280 8.58500 7554 ft 245 kts 62°
2026-04-30 20:50 47.19093 8.60705 7226 ft 245 kts 64°
2026-04-30 20:50 47.19813 8.62962 6936 ft 243 kts 66°
2026-04-30 20:50 47.20492 8.65235 6633 ft 242 kts 67°
2026-04-30 20:51 47.21191 8.67472 6349 ft 239 kts 57°
2026-04-30 20:51 47.23863 8.69532 6292 ft 222 kts 355°
2026-04-30 20:51 47.25325 8.68866 6277 ft 216 kts 335°
2026-04-30 20:52 47.26677 8.67914 5931 ft 218 kts 334°
2026-04-30 20:52 47.28078 8.66946 5473 ft 225 kts 335°
2026-04-30 20:52 47.30871 8.65038 4867 ft 216 kts 336°
2026-04-30 20:53 47.32213 8.64121 4515 ft 209 kts 336°
2026-04-30 20:53 47.33507 8.63236 4204 ft 202 kts 337°
2026-04-30 20:53 47.34746 8.62389 3915 ft 192 kts 337°
2026-04-30 20:54 47.37003 8.60844 3387 ft 163 kts 339°
2026-04-30 20:54 47.37982 8.60171 3150 ft 148 kts 339°
2026-04-30 20:54 47.38887 8.59553 2936 ft 139 kts 341°
2026-04-30 20:55 47.40591 8.58402 2518 ft 136 kts 338°
2026-04-30 20:55 47.41443 8.57791 2297 ft 136 kts 338°
2026-04-30 20:55 47.42016 8.57401 2162 ft 133 kts 339°
2026-04-30 20:56 47.43694 8.56266 1737 ft 133 kts 338°
2026-04-30 20:56 47.44520 8.55689 1537 ft 129 kts 339°
2026-04-30 20:56 47.46005 8.54677 1385 ft 80 kts 336°
2026-04-30 20:57 47.46293 8.54474 1386 ft 22 kts 334°
2026-04-30 20:57 47.46423 8.54428 1383 ft 18 kts 26°
2026-04-30 20:57 47.46474 8.54561 1382 ft 9 kts 64°
2026-04-30 20:58 47.46393 8.54692 1385 ft 15 kts 156°
2026-04-30 20:58 47.46276 8.54768 1384 ft 20 kts 155°
2026-04-30 20:58 47.46151 8.54850 1385 ft 21 kts 155°
2026-04-30 20:58 47.46025 8.54937 1388 ft 20 kts 155°
2026-04-30 20:59 47.45798 8.55094 1397 ft 18 kts 155°
2026-04-30 20:59 47.45678 8.55177 1402 ft 19 kts 153°
2026-04-30 21:00 47.45390 8.55378 1403 ft 25 kts 154°
2026-04-30 21:00 47.45274 8.55595 1406 ft 14 kts 97°
2026-04-30 21:01 47.45253 8.55892 1406 ft 10 kts 95°
2026-04-30 21:01 47.45258 8.55919 1414 ft 5 kts 53°
2026-04-30 21:01 47.45326 8.55942 1410 ft 0 kts
2026-04-30 21:02 47.45335 8.55944 1410 ft 1 kts
2026-04-30 21:02 47.45338 8.55944 1410 ft 0 kts